Location: Memphis
(29.8667°N, 31.2500°E)
Time: 07:41:14
(UTC+00:00)

Cosmos 1633 Rocket - Pass Details

Date: 03 March 2021
Orbit: 606 x 624 km, 82.5° (Epoch: 15 April)

Event Time Altitude Azimuth Distance (km) Brightness Sun altitude
Rises 16:14:16 0° 184° (S) 2,880 6.6 -4.9°
Reaches altitude 10° 16:16:28 10° 184° (S) 1,980 5.8 -5.3°
Maximum altitude 16:20:52 88° 101° (E) 628 3.1 -6.3°
Drops below altitude 10° 16:25:18 10° 6° (N) 1,998 5.6 -7.2°
Sets 16:27:33 0° 7° (N) 2,909 6.4 -7.7°
